Home   Weather   Plymouth   Past weeks

Flag for United Kingdom Past Weather in Plymouth, England, United Kingdom — Yesterday and Last 2 Weeks

Now
63 °F

Partly sunny.


Feels Like: 63 °F
Forecast: 57 / 67 °F
Wind: 7 mph from South

Location: Exeter Airport

Current Time: Jun 24, 2017 at 8:04:45 am

Latest Report: Jun 24, 2017 at 7:20 am


Visibility: N/A

Pressure: 29.98 "Hg

Humidity: 88%

Dew Point: 59 °F

Location of PlymouthLocation

Past Weather in Plymouth — Graph

°F

Plymouth Temperature Yesterday

Maximum temperature yesterday: 70 °F (at 12:20 pm)
Minimum temperature yesterday: 55 °F (at 12:50 am)
Average temperature yesterday: 63 °F

High & Low Weather Summary for the Past Weeks

 TemperatureHumidityPressure
High84 °F (Jun 20, 1:50 pm)100% (Jun 10, 4:50 pm)30.39 "Hg (Jun 10, 4:50 pm)
Low43 °F (Jun 13, 5:20 am)47% (Jun 17, 12:20 pm)29.77 "Hg (Jun 9, 6:20 am)
Average64 °F74%30.07 "Hg
* Reported Jun 9 6:20 am — Jun 24 6:50 am, Plymouth. Weather by CustomWeather, © 2017

Note: Actual official high and low records may vary slightly from our data, if they occured in-between our weather recording intervals... More about our weather records

Advertising

Plymouth Weather History for the Previous 24 Hours

Scroll right to see more
 ConditionsComfort  
Time TempWeatherWind HumidityBarometerVisibility
6:50 am
Sat, Jun 24
63 °FScattered clouds.8 mph88%29.98 "HgN/A
6:20 am61 °FScattered clouds.6 mph88%29.98 "HgN/A
5:50 am61 °FScattered clouds.8 mph88%29.98 "HgN/A
2:50 am61 °FPassing clouds.9 mph88%30.01 "HgN/A
2:20 am61 °FPassing clouds.8 mph88%30.01 "HgN/A
1:50 am61 °FPassing clouds.7 mph88%30.01 "HgN/A
1:20 am61 °FPassing clouds.9 mph83%30.04 "HgN/A
12:50 am61 °FPassing clouds.10 mph83%30.04 "HgN/A
12:20 am61 °FPassing clouds.9 mph83%30.04 "HgN/A
11:50 pm
Fri, Jun 23
61 °FPassing clouds.9 mph83%30.04 "HgN/A
11:20 pm61 °FPassing clouds.10 mph83%30.04 "HgN/A
10:50 pm61 °FPassing clouds.12 mph83%30.04 "HgN/A
10:20 pm63 °FPassing clouds.12 mph77%30.04 "HgN/A
9:50 pm63 °FPassing clouds.9 mph77%30.04 "HgN/A
9:20 pm63 °FPartly sunny.13 mph77%30.04 "HgN/A
8:20 pm64 °FScattered clouds.13 mph73%30.04 "HgN/A
5:50 pm66 °FScattered clouds.13 mph73%30.04 "HgN/A
5:20 pm66 °FScattered clouds.13 mph78%30.07 "HgN/A
4:50 pm66 °FScattered clouds.13 mph73%30.07 "HgN/A
4:20 pm66 °FPartly sunny.13 mph73%30.07 "HgN/A
3:50 pm66 °FPartly sunny.14 mph68%30.07 "HgN/A
3:20 pm66 °FPartly sunny.14 mph68%30.07 "HgN/A
2:50 pm68 °FPartly sunny.12 mph60%30.07 "HgN/A
2:20 pm68 °FPartly sunny.9 mph64%30.07 "HgN/A
1:20 pm70 °FScattered clouds.16 mph57%30.07 "HgN/A
12:50 pm68 °FScattered clouds.16 mph60%30.07 "HgN/A
12:20 pm70 °FPartly sunny.13 mph57%30.07 "HgN/A
11:50 am68 °FPartly sunny.15 mph60%30.07 "HgN/A
11:20 am66 °FPartly sunny.14 mph60%30.07 "HgN/A
10:50 am64 °FPartly sunny.15 mph64%30.07 "HgN/A
10:20 am64 °FPartly sunny.14 mph68%30.07 "HgN/A
9:20 am63 °FPartly sunny.16 mph73%30.07 "HgN/A
8:50 am63 °FPartly sunny.15 mph73%30.04 "HgN/A
8:20 am61 °FPartly sunny.10 mph77%30.04 "HgN/A
Weather by CustomWeather, © 2017

See weather overviewHow to use our weather pages